Location: Buch
(50.1863°N, 11.0141°E)
Time: 19:35:55
(UTC+00:00)

Cosmos 1470 - Pass Details

Date: 18 January 2020
Orbit: 521 x 543 km, 82.5° (Epoch: 16 February)

Event Time Altitude Azimuth Distance (km) Brightness Sun altitude
Rises 05:55:08 0° 232° (SW) 2,695 6.0 -11.3°
Enters shadow 05:55:47 - 235° (SW) 2,467 5.8 -11.2°
Exits shadow 05:56:24 - 239° (WSW) 2,264 5.6 -11.1°
Reaches altitude 10° 05:57:55 10° 253° (WSW) 1,811 5.0 -10.8°
Maximum altitude 06:00:34 17° 295° (WNW) 1,429 4.3 -10.4°
Drops below altitude 10° 06:03:13 10° 336° (NNW) 1,823 5.1 -10.0°
Sets 06:06:02 0° 357° (N) 2,721 6.1 -9.6°
